FENGYUN 1C DEB, 31609

Orbit data source: Space-Track

FENGYUN 1C DEB, 31609 is space debris in SSO originally from a launch on Mon, 10 May 1999 UTC launched from the Taiyaun Space Center, China (TSC). Fengyun 1C debris stems from the Chinese weather satellite Fengyun-1C, which was intentionally destroyed by a Chinese anti-satellite missile in 2007. This event dramatically increased the amount of space debris, with thousands of trackable fragments posing hazards to satellites and human spaceflight. The Fengyun 1C debris cloud has become a focal point in discussions about space sustainability and the need for international regulations to prevent the creation of new debris.

Loading next visibility...
Identifier
31609, 1999-025BZP
Orbit
SSO
Country
Flag of CNCN / PRC
Related business
Manufacturer
Unknown
Mission
Spacecraft
Bus & Motor
Unknown
Mass
Unknown
Launch date (UTC)
1999-05-10 (27 years ago)
Launch vehicle
Unknown
Launch site
Taiyaun Space Center, China (TSC)
Object type
Payload
Rocket body
Debris
Shape & HBR
Unknown shape, 0.1 m
Radar Cross Section
Small (<0.1 m²)

Expand to show TLE details & history
Last TLE update: 1 day ago

TLE from 1 day ago
0 FENGYUN 1C DEB
1 31609U 99025BZP 25341.05515916  .00007643  00000-0  37520-2 0  9990
2 31609  99.2160   9.3880 0094908 336.5905  51.8314 14.15676700660042
Epoch: 2025-12-07T01:19Z
TLE epoch observation values (Epoch: 2025-12-07T01:19:25.751Z)
Latitude
28.91714°
Longitude
-91.65829°
Altitude
801.63 km
Speed
7.477 km/s
True Right ascension
00h 17m 05s
True Declination
28° 46' 22"
Sunlit
Object was in full shadow at epoch
Visualization orbit readout
Latitude
Unknown
Longitude
Unknown
Altitude
Unknown
Speed
Unknown
Apparent Right ascension
Unknown
Apparent Declination
Unknown
Sunlit
N/A
Visualization observer readout
Local Sidereal Time
02:27:02
Azimuth
Unknown
Elevation
Unknown
Doppler factor
Unknown
Orbital elements
Apogee altitude
905.679 km
Perigee altitude
768.721 km
Semi-major axis
7,215.337 km
Eccentricity
0.00949
Inclination
99.216°
RAAN
9.388°
Arg. of periapsis
336.5905°
True anomaly
52.69272°
Mean anomaly
51.8314°
Eccentric anomaly
52.26143°
Mean motion
3.54126 °/min
Orbital period
101.66 mins
BSTAR
0.003752
Loading maneuver chart data...
Computing Atmospheric mass density...

Documentation

Showing up to 5 results
|